Weather History for KOCF - September, 2013

Change the Weather History Date:

Saturday, September 7, 2013

  Actual Average Record
Temperature  
Mean Temperature 78 °F -  
Max Temperature 87 °F 86 °F 91 °F (1996)
Min Temperature 69 °F 68 °F 64 °F (1997)
Cooling Degree Days 13    
Growing Degree Days 28 (Base 50)    
Moisture  
Dew Point 66 °F    
Average Humidity 74    
Maximum Humidity 88    
Minimum Humidity 52    
Precipitation  
Precipitation 0.06 in - - ()
Sea Level Pressure  
Sea Level Pressure 30.01 in    
Wind  
Wind Speed 3 mph (NNE)    
Max Wind Speed 9 mph    
Max Gust Speed 16 mph    
Visibility 10 miles    
Events      
Averages and records for this station are not official NWS values.
T = Trace of Precipitation, MM = Missing Value Source: NWS Daily Summary

Daily Weather History Graph

Daily Weather History Graph

Search for Another Location

Airport or City:

Trip Planner

Search our weather history database for the weather conditions in past years. The results will help you decide how hot, cold, wet, or windy it might be!

Date:

Astronomy

Sep. 07, 2013 Rise Set
Actual Time 7:09 AM EDT 7:43 PM EDT
Civil Twilight 6:45 AM EDT 8:07 PM EDT
Nautical Twilight 6:17 AM EDT 8:35 PM EDT
Astronomical Twilight 5:49 AM EDT 9:03 PM EDT
Moon 9:08 AM EDT (9/7) 8:57 PM EDT (9/7)
Length of Visible Light 13h 21m
Length of Day
12h 33m
Waxing Crescent, 5% of the Moon is Illuminated
Sep 7
Waxing Crescent
Sep 12
First Quarter
Sep 19
Full
Sep 26
Last Quarter
Oct 4
New

Hourly Weather History & Observations

Time (EDT) Temp. Heat Index Dew Point Humidity Pressure Visibility Wind Dir Wind Speed Gust Speed Precip Events Conditions
12:15 AM 71.6 °F - 66.2 °F 83% 30.04 in 10.0 mi NW 6.9 mph - N/A   Clear
12:35 AM 71.6 °F - 66.2 °F 83% 30.03 in 10.0 mi Calm Calm - N/A   Clear
12:55 AM 71.6 °F - 66.2 °F 83% 30.04 in 10.0 mi Calm Calm - N/A   Clear
1:15 AM 71.6 °F - 66.2 °F 83% 30.04 in 10.0 mi North 6.9 mph - N/A   Clear
1:35 AM 71.6 °F - 66.2 °F 83% 30.03 in 10.0 mi NNE 3.5 mph - N/A   Clear
1:55 AM 71.6 °F - 66.2 °F 83% 30.02 in 10.0 mi Calm Calm - N/A   Clear
2:15 AM 71.6 °F - 66.2 °F 83% 30.03 in 10.0 mi Calm Calm - N/A   Partly Cloudy
2:35 AM 71.6 °F - 66.2 °F 83% 30.03 in 10.0 mi Calm Calm - N/A   Mostly Cloudy
2:55 AM 71.6 °F - 66.2 °F 83% 30.02 in 10.0 mi Calm Calm - N/A   Overcast
3:15 AM 71.6 °F - 66.2 °F 83% 30.02 in 10.0 mi Calm Calm - N/A   Overcast
3:35 AM 71.6 °F - 66.2 °F 83% 30.01 in 10.0 mi Calm Calm - N/A   Mostly Cloudy
3:55 AM 71.6 °F - 66.2 °F 83% 30.01 in 10.0 mi Calm Calm - N/A   Partly Cloudy
4:15 AM 69.8 °F - 66.2 °F 88% 30.01 in 9.0 mi NNE 3.5 mph - N/A   Clear
4:35 AM 71.6 °F - 66.2 °F 83% 30.01 in 7.0 mi Calm Calm - N/A   Clear
4:55 AM 69.8 °F - 66.2 °F 88% 30.01 in 7.0 mi Calm Calm - N/A   Clear
5:15 AM 69.8 °F - 64.4 °F 83% 30.01 in 7.0 mi Calm Calm - N/A   Clear
5:35 AM 69.8 °F - 64.4 °F 83% 30.01 in 9.0 mi North 4.6 mph - N/A   Clear
5:55 AM 69.8 °F - 64.4 °F 83% 30.01 in 7.0 mi North 5.8 mph - N/A   Clear
6:15 AM 69.8 °F - 64.4 °F 83% 30.01 in 10.0 mi NNE 3.5 mph - N/A   Clear
6:35 AM 69.8 °F - 64.4 °F 83% 30.01 in 10.0 mi NNE 4.6 mph - N/A   Clear
6:50 AM 69.8 °F - 64.4 °F 83% 30.01 in 10.0 mi North 3.5 mph - N/A   Clear
7:50 AM 69.8 °F - 64.4 °F 83% 30.02 in 10.0 mi NNE 3.5 mph - N/A   Clear
8:50 AM 73.4 °F - 66.2 °F 78% 30.03 in 10.0 mi NNE 4.6 mph - N/A   Clear
10:50 AM 82.4 °F 86.3 °F 69.8 °F 66% 30.04 in 10.0 mi NNE 6.9 mph - N/A   Partly Cloudy
11:50 AM 84.2 °F 89.6 °F 71.6 °F 66% 30.04 in 10.0 mi NNE 6.9 mph - N/A   Scattered Clouds
12:50 PM 84.2 °F 88.4 °F 69.8 °F 62% 30.03 in 10.0 mi ENE 4.6 mph - N/A   Mostly Cloudy
1:50 PM 87.8 °F 91.4 °F 68.0 °F 52% 30.02 in 10.0 mi North 9.2 mph - N/A   Scattered Clouds
2:50 PM 87.8 °F 92.6 °F 69.8 °F 55% 30.00 in 10.0 mi NE 9.2 mph 16.1 mph N/A   Mostly Cloudy
3:50 PM 86.0 °F 89.4 °F 68.0 °F 55% 29.98 in 10.0 mi NE 5.8 mph - N/A   Scattered Clouds
4:50 PM 84.2 °F 88.4 °F 69.8 °F 62% 29.96 in 10.0 mi ENE 6.9 mph - N/A   Scattered Clouds
5:50 PM 84.2 °F 88.4 °F 69.8 °F 62% 29.97 in 10.0 mi East 4.6 mph - N/A   Partly Cloudy
6:50 PM 82.4 °F 86.3 °F 69.8 °F 66% 29.96 in 10.0 mi Calm Calm - N/A   Clear
7:55 PM 80.6 °F 82.7 °F 66.2 °F 61% 29.97 in 10.0 mi Calm Calm - N/A   Clear
8:15 PM 78.8 °F - 68.0 °F 69% 29.98 in 10.0 mi Calm Calm - N/A   Clear
8:35 PM 78.8 °F - 66.2 °F 65% 29.98 in 10.0 mi Calm Calm - N/A   Clear
8:55 PM 78.8 °F - 66.2 °F 65% 29.99 in 10.0 mi Calm Calm - N/A   Clear
9:15 PM 78.8 °F - 66.2 °F 65% 30.00 in 10.0 mi Calm Calm - N/A   Clear
9:35 PM 77.0 °F - 66.2 °F 69% 30.00 in 10.0 mi Calm Calm - N/A   Clear
9:55 PM 77.0 °F - 64.4 °F 65% 30.01 in 10.0 mi Calm Calm - N/A   Clear
10:15 PM 77.0 °F - 64.4 °F 65% 30.02 in 10.0 mi Calm Calm - N/A   Clear
10:35 PM 75.2 °F - 64.4 °F 69% 30.01 in 10.0 mi ENE 3.5 mph - N/A   Clear
10:55 PM 73.4 °F - 64.4 °F 73% 30.01 in 10.0 mi Calm Calm - N/A   Clear
11:15 PM 73.4 °F - 64.4 °F 73% 30.00 in 10.0 mi Calm Calm - N/A   Clear
11:35 PM 73.4 °F - 64.4 °F 73% 30.00 in 10.0 mi Calm Calm - N/A   Clear
11:55 PM 71.6 °F - 64.4 °F 78% 30.00 in 10.0 mi North 3.5 mph - N/A   Clear